Weather History for KBDE - June, 2013

Change the Weather History Date:

Monday, June 10, 2013

  Actual Average Record
Temperature  
Mean Temperature 61 °F -  
Max Temperature 69 °F 75 °F 93 °F (1956)
Min Temperature 54 °F 48 °F 31 °F (1936)
Degree Days  
Heating Degree Days 4    
Growing Degree Days 11 (Base 50)    
Moisture  
Dew Point 55 °F    
Average Humidity 85    
Maximum Humidity 100    
Minimum Humidity 64    
Precipitation  
Precipitation 0.18 in - - ()
Sea Level Pressure  
Sea Level Pressure 29.81 in    
Wind  
Wind Speed 4 mph (SSW)    
Max Wind Speed 13 mph    
Max Gust Speed 17 mph    
Visibility 8 miles    
Events Rain    
Averages and records for this station are not official NWS values.
T = Trace of Precipitation, MM = Missing Value Source: NWS Daily Summary

Daily Weather History Graph

Daily Weather History Graph

Search for Another Location

Airport or City:

Trip Planner

Search our weather history database for the weather conditions in past years. The results will help you decide how hot, cold, wet, or windy it might be!

Date:

Astronomy

Jun. 10, 2013 Rise Set
Actual Time 5:15 AM CDT 9:20 PM CDT
Civil Twilight 4:33 AM CDT 10:02 PM CDT
Nautical Twilight 3:34 AM CDT 11:01 PM CDT
Astronomical Twilight 1:44 AM CDT 12:55 AM CDT
Moon 7:12 AM CDT (6/10) 10:38 PM CDT (6/10)
Length of Visible Light 17h 28m
Length of Day
16h 04m
Waxing Crescent, 4% of the Moon is Illuminated
Jun 10
Waxing Crescent
Jun 16
First Quarter
Jun 23
Full
Jun 29
Last Quarter
Jul 8
New

Hourly Weather History & Observations

Time (CDT) Temp. Dew Point Humidity Pressure Visibility Wind Dir Wind Speed Gust Speed Precip Events Conditions
12:53 AM 55.0 °F 54.0 °F 96% 29.86 in 9.0 mi East 3.5 mph - N/A   Overcast
1:17 AM 55.4 °F 53.6 °F 94% 29.85 in 2.5 mi East 3.5 mph - N/A   Overcast
1:53 AM 55.0 °F 54.0 °F 96% 29.84 in 2.5 mi East 4.6 mph - N/A   Overcast
2:01 AM 55.4 °F 53.6 °F 94% 29.83 in 3.0 mi ESE 3.5 mph - N/A   Overcast
2:53 AM 55.0 °F 54.0 °F 96% 29.83 in 10.0 mi Calm Calm - N/A   Overcast
3:53 AM 54.0 °F 54.0 °F 100% 29.84 in 9.0 mi SW 3.5 mph - N/A   Overcast
4:53 AM 54.0 °F 54.0 °F 100% 29.83 in 8.0 mi Calm Calm - N/A   Overcast
5:53 AM 54.0 °F 54.0 °F 100% 29.83 in 6.0 mi Calm Calm - N/A   Overcast
6:27 AM 55.4 °F 53.6 °F 94% 29.82 in 10.0 mi Calm Calm - N/A   Overcast
6:53 AM 55.0 °F 54.0 °F 96% 29.84 in 10.0 mi Calm Calm - N/A   Overcast
7:53 AM 55.0 °F 54.0 °F 96% 29.84 in 9.0 mi Calm Calm - N/A   Overcast
8:06 AM 55.4 °F 53.6 °F 94% 29.83 in 10.0 mi Calm Calm - N/A   Overcast
8:50 AM 57.2 °F 53.6 °F 88% 29.82 in 10.0 mi Calm Calm - N/A   Overcast
8:53 AM 57.0 °F 54.0 °F 89% 29.84 in 10.0 mi WSW 4.6 mph - N/A   Overcast
9:48 AM 57.2 °F 53.6 °F 88% 29.83 in 10.0 mi Variable 3.5 mph - N/A   Overcast
9:53 AM 57.9 °F 53.1 °F 84% 29.85 in 10.0 mi Variable 3.5 mph - N/A   Overcast
10:24 AM 57.2 °F 53.6 °F 88% 29.84 in 10.0 mi WSW 6.9 mph - N/A   Overcast
10:53 AM 59.0 °F 54.0 °F 83% 29.83 in 10.0 mi South 3.5 mph - N/A   Overcast
11:53 AM 61.0 °F 54.0 °F 78% 29.84 in 10.0 mi SW 8.1 mph - N/A   Overcast
12:53 PM 63.0 °F 55.0 °F 75% 29.83 in 10.0 mi SW 8.1 mph - N/A   Overcast
1:51 PM 64.4 °F 55.4 °F 73% 29.81 in 10.0 mi WSW 6.9 mph - N/A   Scattered Clouds
1:53 PM 66.0 °F 55.9 °F 70% 29.81 in 10.0 mi SW 6.9 mph - N/A   Scattered Clouds
2:53 PM 66.0 °F 55.9 °F 70% 29.81 in 10.0 mi South 6.9 mph - N/A   Clear
3:20 PM 68.0 °F 57.2 °F 68% 29.80 in 10.0 mi SSW 8.1 mph - N/A   Mostly Cloudy
3:42 PM 68.0 °F 55.4 °F 64% 29.79 in 10.0 mi SSW 6.9 mph - N/A   Mostly Cloudy
3:53 PM 66.9 °F 55.9 °F 68% 29.80 in 10.0 mi South 6.9 mph - N/A   Mostly Cloudy
4:53 PM 66.9 °F 57.0 °F 70% 29.80 in 10.0 mi SSW 9.2 mph - N/A   Partly Cloudy
5:53 PM 68.0 °F 55.9 °F 65% 29.79 in 10.0 mi SSW 12.7 mph - N/A   Scattered Clouds
6:53 PM 66.9 °F 57.0 °F 70% 29.78 in 10.0 mi SSW 12.7 mph - N/A   Partly Cloudy
7:53 PM 64.9 °F 55.9 °F 73% 29.77 in 10.0 mi SSW 6.9 mph - N/A   Partly Cloudy
8:28 PM 62.6 °F 57.2 °F 82% 29.80 in 1.8 mi Variable 5.8 mph 17.3 mph 0.07 in Rain Heavy Rain
8:31 PM 62.6 °F 57.2 °F 82% 29.79 in 1.0 mi WSW 6.9 mph 17.3 mph 0.11 in Rain Heavy Rain
8:41 PM 60.8 °F 55.4 °F 82% 29.77 in 1.5 mi SSW 11.5 mph - 0.15 in Rain Light Rain
8:43 PM 60.8 °F 55.4 °F 82% 29.76 in 3.0 mi South 11.5 mph - 0.15 in Rain Light Rain
8:53 PM 60.1 °F 55.9 °F 86% 29.77 in 9.0 mi South 11.5 mph - 0.15 in Rain Light Rain
9:53 PM 61.0 °F 57.9 °F 90% 29.77 in 10.0 mi SW 11.5 mph - 0.02 in Rain Light Rain
10:53 PM 61.0 °F 57.9 °F 90% 29.80 in 7.0 mi Calm Calm - 0.01 in Rain Light Rain
11:01 PM 60.8 °F 57.2 °F 88% 29.79 in 10.0 mi SSW 4.6 mph - 0.00 in Rain Light Rain
11:53 PM 59.0 °F 57.9 °F 96% 29.80 in 10.0 mi SSW 4.6 mph - 0.00 in   Overcast